Погода в Угличе

Поиск расширенной информации на нашем сайте:

Полезная информация:

Новости сайта



02.01.2020
Опубликован Долгосрочный прогноз погоды по городам России и ближнего зарубежья на январь 2020 года.
Карты: Прогноз на январь и февраль 2020 года, Сравнение прогнозируемой аномалии приземной температуры воздуха на январь 2020 года по разным моделям.




Погода в Угличе - сегодня

Время (UTC), дата Ветер
(°,м/с) 
Видим.   Явления Облачность Т
(°С)
Тd
(°С)
f(%) Тe
(°С)
Pmin
(гПа)
dP
(гПа)
Po
(мм)
O2
(г/м3)
Тmin Tmax R s Состояние
почвы
06 29.11.20 080 (В) 10 км    10/0 средняя 
[As op]
-1.9 -2.6 95 -3  1032.2  0.4  762  310  -2.1         
09 29.11.20 080 (В) 10 км  {снег}  10/0 средняя 
[As op]
-1 -2.1 92 -3  1032.3  0.1  762  309           
12 29.11.20 080 (В) 10 км  {снег}  10/0 средняя 
[As op]
-0.1 -0.8 95 -2  1032  -0.2  762  307           
15 29.11.20 100 (В) 4000 м  слаб. снег  10/10 600 м 
[Sc]
+0.6 -0.3 94 -1  1031.7  -0.2  762  306    +0.6  0.4     
18 29.11.20 100 (В) 4000 м  слаб. снег  10/10 600 м 
[Frnb|Ns]
+0.8 +0.1 95 1031.3  -0.4  762  306           
21 29.11.20 110 (В) 4000 м  слаб. снег  10/10 600 м 
[Frnb|Ns]
+1.3 +0.6 95 1031.5  0.1  762  305           
00 30.11.20 110 (В) 4000 м  слаб. дождь{снег}  10/10 600 м 
[Frnb|Ns]
+1.7 +1.1 96 1031.2  -0.2  762  305           
03 30.11.20 120 (ЮВ) 10 км  {дождь}  10/10 600 м 
[Sc]
+1.9 +0.3 89 1030.5  -0.7  761  305  +0.6    <0.5  мокрый или
старый снег
50-90% 
06 30.11.20 120 (ЮВ) 10 км  {дождь}  10/10 600 м 
[Sc]
+1 -0.5 90 -1  1030.6  -0.1  761  306           
09 30.11.20 140 (ЮВ) 4000 м  слаб. снег  10/10 600 м 
[Sc]
+0.8 -1 88 -2  1030.2  -0.3  761  306           
12 30.11.20 140 (ЮВ) 10 км  {снег}  10/10 600 м 
[Sc]
+0.5 -1.8 85 -1  1029.3  -0.9  760  306           
15 30.11.20 150 (ЮВ) 10 км    10/10 600 м 
[Sc]
+0.6 -1.4 86 -2  1029  -0.3  760  306    +1.9  0.0     
18 30.11.20 150 (ЮВ) 4000 м  слаб. снег  10/10 600 м 
[Sc]
+0.3 -0.9 92 -1  1029  760  306           
21 30.11.20 170 (Ю) 4000 м  слаб. снег  10/10 600 м 
[Sc]
+0 -1 93 -2  1029.1  0.1  760  306           
00 01.12.20 150 (ЮВ) 4000 м  слаб. снег  10/10 600 м 
[Sc]
-0.4 -1.3 94 -1  1029  0.1  760  307           
03 01.12.20 160 (Ю) 4000 м  слаб. снег  10/10 600 м 
[Sc]
-0.5 -1.8 91 -1  1029.1  760  307  -0.5    равномерный
мокрый или
старый снег
100% 
06 01.12.20 170 (Ю) 4000 м  слаб. снег  10/10 600 м 
[Sc]
-0.9 -1.8 94 -2  1030  0.9  761  308  -0.9         
09 01.12.20 180 (Ю) 4000 м  слаб. снег  10/10 600 м 
[Sc]
-0.9 -2.4 90 -2  1031.1  1.1  762  308           
12 01.12.20 170 (Ю) 4000 м  снег  10/0 средняя 
[As op]
-1.5 -2.5 93 -2  1031.8  0.7  762  309           
15 01.12.20 150 (ЮВ) 4000 м  слаб. снег  10/0 средняя 
[As op]
-2.1 -3.1 93 -2  1033.2  1.3  763  310    -0.5     
18 01.12.20 180 (Ю) 10 км  {снег}  10/0 средняя 
[As op]
-2.2 -3.6 90 -3  1034.1  0.8  764  311           
21 01.12.20 190 (Ю) 10 км    10/0 средняя 
[As op]
-2.1 -3.5 90 -3  1035.1  1.1  765  311           
00 02.12.20 170 (Ю) 10 км    10/0 средняя 
[As op]
-2.1 -3.2 92 -2  1035.8  0.7  765  311           
03 02.12.20 170 (Ю) 10 км    10/0 средняя 
[As op]
-2.2 -3.2 93 -2  1036.1  0.3  765  311  -2.3    0.0  равномерный
сухой снег
100% 
06 02.12.20 170 (Ю) 10 км    10/10 600 м 
[Sc]
-2.2 -3.2 93 -3  1036.9  0.8  766  312           
Время (UTC), дата Ветер
(°,м/с) 
Видим.   Явления Облачность Т
(°С)
Тd
(°С)
f(%) Тe
(°С)
Pmin
(гПа)
dP
(гПа)
Po
(мм)
O2
(г/м3)
Тmin Tmax R s Состояние
почвы

Для получения пояснительной информации подведите курсор к названию столбца.

ПОГОДА в Угличе - архив

Всё, что Вы хотите узнать о погоде в Угличе - удобно и подробно!

Выберите нужную дату (начиная с 1 января 2019* года) и нажмите кнопку "Найти".
Будут отображены архивные сводки погоды по пункту Углич, начиная с указанной даты.


Отображать данные в формате CSV (для использования в таблицах Excel)


Внимание! Наш архив погоды предназначен исключительно для личного некоммерческого использования в познавательных целях. Если Вам необходимы официальные справки о состоянии погоды (для производственных, юридических, коммерческих и т.п. целей), обращайтесь в органы Росгидромета.

*Примечание: данная дата относится к архиву по метеостанциям СССР (Россия, СНГ, Балтия).
Архив по метеостанциям Зарубежной Европы и Азии (кроме Китая) хранится 10 дней, по другим регионам земного шара (Китай, Африка, Америка, Австралия, Океания) - 1 день.

Углич - район местоположения метеостанции


Название, широта, долгота, высота метеостанции:
Углич 57.5°ш. 38.3°д. 122 м над ур. моря [Российская Федерация]

Дополнительная информация

В oтличие oт бoльшинства пoгoдных сайтoв мы публикуем пoдрoбную метеoинфoрмацию в детальнoм прoфессиoнальнoм фoрмате.

Характеристики температуры и влажнoсти вoздуха измеряются на высoте 2 м в тени вдали oт зданий и деревьев.
Скoрoсть ветра измеряется на высoте 10 м (на урoвне рoста челoвека скoрoсть ветра ниже в 1.5-2 раза). Если метеoстанция нахoдится в гoрoде или в лесу, тo скoрoсть ветра занижена на 2-4 м/с пo сравнению с oткрытым местoм. Скoрoсть ветра над акватoриями крупных рек и oзёр, а также на вершинах хoлмoв на 2-5 м/с выше, чем в oбычных услoвиях.
Атмoсфернoе давление в разных тoчках местнoсти мoжет значительнo oтличаться oт давления на метеoстанции, в зависимoсти oт услoвий рельефа (при пoдъёме на 10 м давление пoнижается примернo на 1 мм рт.ст.).